GW2280 Weather Reports


Display with metric or nautical units.
time (UTC)temp
F
wind
direction
speed
MPH
gust
MPH
rain 1hr
in
rain 24hr
in
rain mn
in
humidity
%
barometer
mb
20260510082014 46 0 0.0 0.0 0.00 0.52 0.00 98 1012.6
20260510081538 46 0 0.0 3.0 0.00 0.52 0.00 98 1012.7
20260510081011 46 0 0.0 3.0 0.00 0.52 0.00 98 1012.7
20260510080516 46 0 1.0 4.0 0.00 0.52 0.00 98 1012.7
20260510080048 46 214 0.0 4.0 0.00 0.52 0.00 98 1012.7
20260510075513 46 236 1.0 5.0 0.00 0.52 0.00 98 1012.9
20260510075014 46 238 2.0 5.0 0.00 0.52 0.00 98 1013.2
20260510074529 46 219 0.0 4.0 0.00 0.52 0.00 98 1013.2
20260510074104 46 211 1.0 5.0 0.00 0.52 0.00 98 1012.9
20260510073513 46 213 2.0 5.0 0.00 0.52 0.00 98 1012.9
20260510073039 46 204 2.0 7.0 0.00 0.52 0.00 98 1013.0
20260510072514 46 195 2.0 7.0 0.00 0.52 0.00 98 1012.9
20260510072014 46 174 2.0 7.0 0.00 0.52 0.00 98 1012.9
20260510071533 46 189 1.0 7.0 0.00 0.52 0.00 98 1012.8
20260510071011 46 190 2.0 7.0 0.00 0.52 0.00 98 1012.7
20260510070513 46 0 2.0 7.0 0.00 0.52 0.00 98 1012.7
20260510070042 46 0 0.0 7.0 0.00 0.52 0.00 98 1012.7
20260510065511 46 162 3.0 10.0 0.00 0.52 0.00 98 1012.7
20260510065017 46 134 5.0 10.0 0.00 0.52 0.00 98 1012.7
20260510064530 46 131 2.0 10.0 0.00 0.52 0.00 98 1012.7
20260510064015 46 131 4.0 10.0 0.00 0.52 0.00 98 1012.7
20260510063513 46 107 5.0 9.0 0.00 0.52 0.00 98 1012.8
20260510063036 46 139 5.0 9.0 0.00 0.52 0.00 98 1012.9
20260510062511 46 131 4.0 9.0 0.00 0.52 0.00 98 1012.9
20260510062015 46 130 3.0 8.0 0.00 0.52 0.00 98 1013.1
20260510061528 46 161 3.0 9.0 0.00 0.52 0.00 98 1013.2
20260510061013 46 161 4.0 9.0 0.00 0.52 0.00 98 1013.3
20260510060512 46 170 2.0 8.0 0.00 0.52 0.00 98 1013.4
20260510060039 46 0 3.0 8.0 0.00 0.52 0.00 98 1013.5
20260510055521 46 186 3.0 8.0 0.00 0.52 0.00 98 1013.6
20260510055012 46 0 3.0 8.0 0.00 0.52 0.00 98 1013.5
20260510054530 46 179 3.0 7.0 0.00 0.52 0.00 98 1013.4
20260510054011 46 188 2.0 8.0 0.00 0.52 0.00 98 1013.4
20260510053512 46 179 3.0 9.0 0.00 0.52 0.00 98 1013.6
20260510053030 46 167 4.0 10.0 0.00 0.52 0.00 98 1013.6
20260510052511 46 159 4.0 10.0 0.00 0.52 0.00 98 1013.7
20260510052012 45 169 3.0 10.0 0.00 0.52 0.00 98 1013.7
20260510051533 45 146 4.0 10.0 0.00 0.52 0.00 98 1013.7
20260510051015 45 150 3.0 10.0 0.00 0.52 0.00 98 1013.8
20260510050513 45 146 4.0 9.0 0.00 0.52 0.00 98 1013.7
20260510050029 45 155 4.0 13.0 0.00 0.52 0.00 98 1013.7
20260510045516 45 160 4.0 13.0 0.00 0.52 0.00 98 1013.6
20260510045012 45 190 6.0 12.0 0.01 0.52 0.00 98 1013.7
20260510044529 45 157 4.0 12.0 0.01 0.52 0.00 98 1013.6
20260510044018 45 124 4.0 11.0 0.01 0.52 0.00 98 1013.6
20260510043516 45 142 6.0 10.0 0.01 0.52 0.00 98 1013.6
20260510043031 45 138 5.0 11.0 0.01 0.52 0.00 98 1013.6
20260510042514 45 141 5.0 11.0 0.01 0.52 0.00 98 1013.7
20260510042013 45 147 6.0 12.0 0.01 0.52 0.00 98 1013.8
20260510041532 45 123 5.0 12.0 0.01 0.52 0.00 98 1013.9
20260510041011 45 170 5.0 12.0 0.01 0.52 0.00 98 1013.9
20260510040514 45 133 6.0 12.0 0.01 0.52 0.00 98 1013.9
20260510040032 45 153 5.0 11.0 0.01 0.52 0.00 98 1013.8
20260510035511 45 152 5.0 10.0 0.00 0.51 0.51 98 1013.8
20260510035012 45 163 4.0 10.0 0.00 0.51 0.51 98 1013.9
20260510034529 45 136 6.0 9.0 0.00 0.51 0.51 98 1013.9
20260510034018 45 138 5.0 9.0 0.00 0.51 0.51 98 1013.9
20260510033512 45 165 4.0 9.0 0.00 0.51 0.51 98 1014.0
20260510033042 45 165 4.0 9.0 0.00 0.51 0.51 98 1014.0
20260510032510 45 158 3.0 7.0 0.00 0.51 0.51 98 1014.2
20260510032014 44 186 3.0 14.0 0.01 0.51 0.51 98 1014.3
20260510031532 44 191 4.0 14.0 0.01 0.51 0.51 98 1014.4
20260510031013 44 192 5.0 14.0 0.01 0.51 0.51 98 1014.4
20260510030512 44 194 2.0 5.0 0.02 0.51 0.51 98 1014.5
20260510030029 44 197 1.0 4.0 0.02 0.51 0.51 98 1014.5
20260510025515 44 198 2.0 6.0 0.03 0.51 0.51 98 1014.5
20260510025012 44 188 0.0 10.0 0.03 0.51 0.51 98 1014.5
20260510024532 44 0 2.0 10.0 0.03 0.51 0.51 98 1014.6
20260510024011 44 207 2.0 9.0 0.03 0.51 0.51 97 1014.6
20260510023512 44 254 4.0 7.0 0.03 0.51 0.51 98 1014.5
20260510023031 44 0 0.0 6.0 0.03 0.51 0.51 98 1014.6
20260510022511 43 113 2.0 6.0 0.03 0.51 0.51 98 1014.4
20260510022016 43 97 2.0 6.0 0.02 0.50 0.50 98 1014.5
20260510021606 43 100 3.0 6.0 0.02 0.50 0.50 98 1014.5
20260510021011 43 107 3.0 6.0 0.02 0.50 0.50 97 1014.7
20260510020511 43 99 2.0 6.0 0.01 0.49 0.49 97 1014.7
20260510020031 43 136 0.0 4.0 0.01 0.49 0.49 97 1014.7
20260510015513 43 0 1.0 4.0 0.00 0.48 0.48 97 1014.8
20260510015011 43 0 0.0 2.0 0.00 0.48 0.48 97 1014.9
20260510014545 43 137 0.0 7.0 0.00 0.48 0.48 97 1014.9
20260510014011 43 0 0.0 7.0 0.01 0.48 0.48 97 1014.9
20260510013512 43 87 4.0 7.0 0.01 0.48 0.48 97 1014.8
20260510013033 43 70 3.0 5.0 0.01 0.48 0.48 97 1014.6
20260510012513 42 321 2.0 6.0 0.01 0.48 0.48 97 1014.9
20260510012014 42 86 2.0 7.0 0.01 0.48 0.48 97 1014.7
20260510011531 42 100 1.0 11.0 0.01 0.48 0.48 97 1014.7
20260510011010 42 76 3.0 11.0 0.01 0.48 0.48 97 1014.6
20260510010513 42 98 7.0 11.0 0.01 0.48 0.48 97 1014.5
20260510010042 42 61 5.0 11.0 0.01 0.48 0.48 97 1014.6
20260510005515 42 60 7.0 11.0 0.01 0.48 0.48 97 1014.5
20260510005014 42 0 2.0 11.0 0.01 0.48 0.48 97 1014.4
20260510004531 42 65 5.0 14.0 0.01 0.48 0.48 97 1014.4
20260510004012 42 100 8.0 15.0 0.00 0.47 0.47 97 1014.4
20260510003512 42 360 1.0 15.0 0.00 0.47 0.47 97 1014.4
20260510003030 42 87 10.0 15.0 0.00 0.47 0.47 97 1014.3
20260510002513 42 121 4.0 14.0 0.01 0.47 0.47 97 1014.2
20260510002013 42 83 9.0 14.0 0.01 0.47 0.47 97 1014.1
20260510001533 42 360 9.0 14.0 0.01 0.47 0.47 97 1014.1
20260510001011 42 360 7.0 16.0 0.01 0.47 0.47 97 1014.0
20260510000514 42 360 9.0 16.0 0.01 0.47 0.47 97 1013.8
20260510000030 42 84 11.0 18.0 0.01 0.47 0.47 97 1013.7
20260509235511 42 360 10.0 19.0 0.02 0.47 0.47 97 1013.7
20260509235010 42 112 13.0 19.0 0.02 0.47 0.47 97 1013.8
20260509234529 42 107 10.0 20.0 0.02 0.47 0.47 97 1013.7
20260509234014 42 88 12.0 20.0 0.02 0.47 0.47 97 1013.7
20260509233511 42 92 11.0 19.0 0.02 0.47 0.47 97 1013.8
20260509233033 42 96 12.0 19.0 0.03 0.47 0.47 97 1013.9
20260509232514 42 97 9.0 18.0 0.02 0.46 0.46 96 1014.0
20260509232014 42 82 10.0 18.0 0.04 0.46 0.46 97 1014.0
20260509231530 42 101 10.0 17.0 0.04 0.46 0.46 97 1014.1
20260509231011 42 115 11.0 17.0 0.05 0.46 0.46 97 1014.2
20260509230512 42 92 7.0 15.0 0.06 0.46 0.46 97 1014.3
20260509230037 42 94 7.0 13.0 0.06 0.46 0.46 96 1014.3
20260509225512 42 114 8.0 13.0 0.06 0.45 0.45 96 1014.3
20260509225011 42 98 7.0 13.0 0.06 0.45 0.45 96 1014.4
20260509224530 42 87 9.0 13.0 0.07 0.45 0.45 96 1014.4
20260509224011 42 96 5.0 12.0 0.07 0.45 0.45 96 1014.6
20260509223513 42 82 7.0 12.0 0.07 0.45 0.45 96 1014.5
20260509223030 42 96 8.0 12.0 0.06 0.44 0.44 96 1014.5
20260509222512 42 112 1.0 10.0 0.06 0.43 0.43 96 1014.9
20260509222046 42 113 6.0 12.0 0.05 0.42 0.42 96 1014.7
20260509221529 42 119 6.0 12.0 0.05 0.41 0.41 96 1014.6
20260509221012 42 66 7.0 15.0 0.05 0.41 0.41 96 1014.5
20260509220511 42 113 5.0 15.0 0.05 0.40 0.40 96 1014.6
20260509220030 42 128 5.0 15.0 0.06 0.40 0.40 96 1014.6
20260509215513 42 116 7.0 15.0 0.05 0.39 0.39 96 1014.7
20260509215012 42 107 10.0 15.0 0.05 0.39 0.39 96 1014.7
20260509214532 43 128 7.0 17.0 0.04 0.38 0.38 96 1014.8
20260509214013 42 122 8.0 17.0 0.05 0.38 0.38 96 1014.8
20260509213512 43 130 10.0 17.0 0.05 0.38 0.38 96 1014.9
20260509213034 43 129 7.0 17.0 0.04 0.37 0.37 96 1014.9
20260509212511 42 103 10.0 18.0 0.04 0.37 0.37 96 1014.9
20260509212016 43 117 12.0 19.0 0.04 0.37 0.37 95 1014.8
20260509211531 43 121 11.0 19.0 0.03 0.36 0.36 96 1014.9
20260509211012 43 124 11.0 19.0 0.03 0.36 0.36 95 1014.9
20260509210511 43 123 9.0 18.0 0.03 0.35 0.35 96 1015.1
20260509210033 43 109 10.0 18.0 0.02 0.34 0.34 95 1014.9
20260509205513 43 130 8.0 15.0 0.02 0.34 0.34 95 1014.9
20260509205013 43 97 6.0 13.0 0.02 0.34 0.34 95 1014.9
20260509204528 43 130 3.0 14.0 0.02 0.34 0.34 96 1014.9
20260509204012 43 120 8.0 14.0 0.02 0.33 0.33 95 1014.7
20260509203512 43 94 5.0 13.0 0.02 0.33 0.33 95 1014.4
20260509203032 43 98 7.0 14.0 0.02 0.33 0.33 95 1014.7
20260509202512 43 115 7.0 14.0 0.03 0.33 0.33 95 1014.9
20260509202014 44 107 8.0 16.0 0.03 0.33 0.33 95 1014.9
20260509201531 44 123 8.0 16.0 0.04 0.33 0.33 95 1015.0
20260509201013 44 94 6.0 13.0 0.05 0.33 0.33 95 1015.0
20260509200513 44 95 5.0 13.0 0.05 0.32 0.32 95 1014.9
20260509200033 44 113 4.0 13.0 0.05 0.32 0.32 95 1015.2
20260509195514 44 120 7.0 13.0 0.06 0.32 0.32 95 1015.1
20260509195013 44 119 7.0 13.0 0.07 0.32 0.32 95 1015.1
20260509194544 44 105 5.0 13.0 0.08 0.32 0.32 95 1015.4
20260509194014 44 103 8.0 13.0 0.08 0.31 0.31 95 1015.3
20260509193513 43 105 4.0 13.0 0.09 0.31 0.31 95 1015.4
20260509193033 43 104 7.0 13.0 0.11 0.31 0.31 95 1015.6
20260509192512 43 125 7.0 10.0 0.11 0.30 0.30 95 1015.6
20260509192011 43 122 6.0 10.0 0.11 0.29 0.29 95 1015.6
20260509191531 43 118 2.0 11.0 0.12 0.29 0.29 95 1015.7
20260509191012 43 121 5.0 11.0 0.11 0.28 0.28 94 1015.7
20260509190513 43 131 5.0 11.0 0.11 0.27 0.27 94 1015.8
20260509190031 43 153 5.0 13.0 0.11 0.26 0.26 94 1015.8
20260509185514 43 360 5.0 13.0 0.12 0.26 0.26 94 1015.8
20260509185014 43 132 8.0 13.0 0.12 0.25 0.25 93 1015.7
20260509184533 43 135 6.0 13.0 0.13 0.24 0.24 93 1015.8
20260509184013 43 111 8.0 13.0 0.13 0.23 0.23 93 1015.9
20260509183511 44 360 5.0 12.0 0.13 0.22 0.22 93 1016.0
20260509183034 44 0 5.0 12.0 0.12 0.20 0.20 93 1016.1
20260509182514 44 360 3.0 12.0 0.12 0.19 0.19 93 1016.0
20260509182013 44 147 5.0 12.0 0.11 0.18 0.18 92 1016.0
20260509181529 44 123 6.0 10.0 0.12 0.17 0.17 92 1016.1
20260509181019 44 0 4.0 11.0 0.11 0.16 0.16 92 1016.1
20260509180514 44 360 6.0 11.0 0.12 0.16 0.16 92 1016.0
20260509180042 44 360 3.0 10.0 0.11 0.15 0.15 92 1016.0
20260509175513 44 360 2.0 9.0 0.11 0.14 0.14 91 1016.1
20260509175010 44 360 2.0 8.0 0.09 0.12 0.12 91 1016.1
20260509174529 44 147 3.0 8.0 0.09 0.11 0.11 90 1016.3
20260509174014 44 360 2.0 8.0 0.08 0.10 0.10 90 1016.3
20260509173515 44 360 2.0 10.0 0.07 0.09 0.09 90 1016.1
20260509173034 44 360 1.0 10.0 0.07 0.08 0.08 90 1016.1
20260509172518 44 360 7.0 10.0 0.06 0.07 0.07 88 1015.9
20260509172014 45 360 2.0 10.0 0.05 0.06 0.06 88 1016.1
20260509171537 45 360 5.0 10.0 0.04 0.05 0.05 87 1016.0
20260509171011 46 360 2.0 10.0 0.05 0.05 0.05 87 1016.1
20260509170512 46 360 5.0 10.0 0.04 0.04 0.04 86 1016.0
20260509170032 47 360 3.0 8.0 0.03 0.03 0.03 85 1016.0
20260509165512 47 0 1.0 4.0 0.03 0.03 0.03 85 1016.0
20260509165013 47 360 0.0 4.0 0.03 0.03 0.03 83 1016.0
20260509164531 47 0 0.0 4.0 0.02 0.02 0.02 83 1016.1
20260509164011 47 360 2.0 6.0 0.02 0.02 0.02 81 1016.1
20260509163510 47 360 2.0 6.0 0.01 0.01 0.01 80 1016.3
20260509163033 48 176 0.0 4.0 0.01 0.01 0.01 81 1016.3
20260509162514 48 0 0.0 4.0 0.01 0.01 0.01 80 1016.3
20260509162011 48 213 2.0 8.0 0.01 0.01 0.01 79 1016.3
20260509161530 48 234 1.0 8.0 0.00 0.00 0.00 77 1016.4
20260509161013 48 208 3.0 8.0 0.00 0.00 0.00 77 1016.5
20260509160515 48 216 1.0 8.0 0.00 0.00 0.00 76 1016.5
20260509160035 49 209 1.0 8.0 0.00 0.00 0.00 73 1016.5
20260509155511 49 194 1.0 8.0 0.00 0.00 0.00 71 1016.5
20260509155010 49 171 2.0 8.0 0.00 0.00 0.00 70 1016.5
20260509154531 49 0 2.0 9.0 0.00 0.00 0.00 68 1016.6
20260509154014 49 0 1.0 10.0 0.00 0.00 0.00 68 1016.6
20260509153510 49 200 4.0 10.0 0.00 0.00 0.00 66 1016.6
20260509153049 49 246 3.0 11.0 0.00 0.00 0.00 65 1016.6
20260509152511 50 360 3.0 11.0 0.00 0.00 0.00 65 1016.7
20260509152012 50 183 4.0 13.0 0.00 0.00 0.00 63 1016.7
20260509151530 50 225 5.0 23.0 0.00 0.00 0.00 59 1016.6
20260509151010 51 360 4.0 23.0 0.00 0.00 0.00 58 1016.6
20260509150514 52 205 10.0 23.0 0.00 0.00 0.00 54 1016.6
20260509150030 52 360 3.0 17.0 0.00 0.00 0.00 51 1016.5
20260509145512 52 360 9.0 18.0 0.00 0.00 0.00 50 1016.4
20260509145012 52 193 7.0 18.0 0.00 0.00 0.00 48 1016.3
20260509144529 53 360 7.0 17.0 0.00 0.00 0.00 48 1016.1
20260509144011 53 360 6.0 12.0 0.00 0.00 0.00 47 1016.2
20260509143514 53 189 4.0 15.0 0.00 0.00 0.00 46 1016.1
20260509143030 53 176 8.0 15.0 0.00 0.00 0.00 44 1016.0
20260509142513 54 163 5.0 14.0 0.00 0.00 0.00 46 1015.9
20260509142014 54 192 5.0 14.0 0.00 0.00 0.00 46 1015.9
20260509141538 54 196 4.0 14.0 0.00 0.00 0.00 46 1015.9
20260509141014 53 219 4.0 13.0 0.00 0.00 0.00 45 1015.9
20260509140511 53 211 4.0 10.0 0.00 0.00 0.00 46 1015.8
20260509140030 53 209 4.0 9.0 0.00 0.00 0.00 47 1015.8
20260509135513 53 207 5.0 12.0 0.00 0.00 0.00 47 1015.9
20260509135014 53 216 6.0 12.0 0.00 0.00 0.00 47 1016.0
20260509134530 53 179 5.0 11.0 0.00 0.00 0.00 45 1015.9
20260509134011 53 360 5.0 12.0 0.00 0.00 0.00 47 1015.8
20260509133511 53 176 6.0 12.0 0.00 0.00 0.00 47 1015.9
20260509133032 53 196 6.0 17.0 0.00 0.00 0.00 47 1016.0
20260509132516 54 184 6.0 17.0 0.00 0.00 0.00 47 1016.0
20260509132013 54 221 6.0 14.0 0.00 0.00 0.00 46 1016.1
20260509131530 54 166 2.0 10.0 0.00 0.00 0.00 48 1016.0
20260509131014 54 0 3.0 10.0 0.00 0.00 0.00 49 1016.1
20260509130515 53 196 4.0 10.0 0.00 0.00 0.00 47 1016.2
20260509130030 53 189 3.0 14.0 0.00 0.00 0.00 48 1016.3
20260509125516 53 200 2.0 14.0 0.00 0.00 0.00 48 1016.2
20260509125016 53 360 4.0 11.0 0.00 0.00 0.00 48 1016.2
20260509124531 53 240 5.0 10.0 0.00 0.00 0.00 48 1016.2
20260509124011 52 163 0.0 7.0 0.00 0.00 0.00 52 1016.2
20260509123513 52 180 2.0 7.0 0.00 0.00 0.00 52 1016.2
20260509123030 52 231 4.0 7.0 0.00 0.00 0.00 51 1016.2
20260509122512 51 201 4.0 8.0 0.00 0.00 0.00 54 1016.3
20260509122014 51 178 3.0 8.0 0.00 0.00 0.00 53 1016.3
20260509121530 51 232 1.0 5.0 0.00 0.00 0.00 54 1016.3
20260509121015 50 202 1.0 5.0 0.00 0.00 0.00 57 1016.3
20260509120512 50 229 0.0 5.0 0.00 0.00 0.00 58 1016.4
20260509120030 49 234 3.0 5.0 0.00 0.00 0.00 56 1016.3
20260509115511 49 360 0.0 6.0 0.00 0.00 0.00 57 1016.2
20260509115012 48 360 1.0 6.0 0.00 0.00 0.00 58 1016.2
20260509114535 48 360 1.0 3.0 0.00 0.00 0.00 58 1016.3
20260509114012 48 0 0.0 3.0 0.00 0.00 0.00 60 1016.3
20260509113512 47 360 0.0 3.0 0.00 0.00 0.00 59 1016.3
20260509113030 47 360 0.0 3.0 0.00 0.00 0.00 59 1016.3
20260509112510 47 0 0.0 2.0 0.00 0.00 0.00 60 1016.3
20260509112014 46 0 0.0 3.0 0.00 0.00 0.00 60 1016.3
20260509111530 46 220 1.0 3.0 0.00 0.00 0.00 60 1016.3
20260509111013 46 221 1.0 4.0 0.00 0.00 0.00 61 1016.3
20260509110511 45 225 0.0 4.0 0.00 0.00 0.00 61 1016.4
20260509110030 45 230 1.0 4.0 0.00 0.00 0.00 62 1016.3
20260509105510 45 244 0.0 4.0 0.00 0.00 0.00 62 1016.3
20260509105013 44 254 1.0 3.0 0.00 0.00 0.00 63 1016.3
20260509104532 44 0 1.0 3.0 0.00 0.00 0.00 63 1016.2
20260509104011 44 255 1.0 4.0 0.00 0.00 0.00 63 1016.1
20260509103512 44 257 1.0 4.0 0.00 0.00 0.00 64 1016.0
20260509103035 44 255 2.0 4.0 0.00 0.00 0.00 64 1015.9
20260509102512 43 257 1.0 4.0 0.00 0.00 0.00 64 1015.8
20260509102011 43 257 2.0 4.0 0.00 0.00 0.00 65 1015.8
20260509101532 43 259 2.0 4.0 0.00 0.00 0.00 65 1015.7
20260509101011 43 291 2.0 3.0 0.00 0.00 0.00 64 1015.7
20260509100512 43 292 2.0 3.0 0.00 0.00 0.00 64 1015.6
20260509100031 43 292 1.0 3.0 0.00 0.00 0.00 64 1015.6
20260509095513 43 292 1.0 4.0 0.00 0.00 0.00 65 1015.4
20260509095017 43 292 2.0 4.0 0.00 0.00 0.00 65 1015.3
20260509094534 43 292 2.0 4.0 0.00 0.00 0.00 65 1015.3
20260509094011 43 292 2.0 3.0 0.00 0.00 0.00 65 1015.2
20260509093511 43 292 2.0 3.0 0.00 0.00 0.00 65 1015.1
20260509093032 43 292 2.0 4.0 0.00 0.00 0.00 65 1015.1
20260509092513 43 292 2.0 4.0 0.00 0.00 0.00 65 1015.1
20260509092011 43 292 2.0 4.0 0.00 0.00 0.00 65 1015.1
20260509091535 43 292 2.0 4.0 0.00 0.00 0.00 65 1014.9
20260509091013 43 292 3.0 4.0 0.00 0.00 0.00 65 1014.9
20260509090513 43 292 2.0 4.0 0.00 0.00 0.00 65 1014.8
20260509090037 43 291 3.0 4.0 0.00 0.00 0.00 65 1014.9
20260509085511 43 296 2.0 4.0 0.00 0.00 0.00 65 1014.9
20260509085013 43 303 3.0 4.0 0.00 0.00 0.00 65 1014.8
20260509084532 43 304 3.0 5.0 0.00 0.00 0.00 65 1014.7
20260509084011 43 302 3.0 5.0 0.00 0.00 0.00 65 1014.7
20260509083513 43 296 3.0 7.0 0.00 0.00 0.00 65 1014.8
20260509083030 43 284 4.0 7.0 0.00 0.00 0.00 65 1014.9
20260509082511 43 291 4.0 7.0 0.00 0.00 0.00 65 1014.9